Precipitable_Water
0.32 0.21 0.16 0.13 0.13 0.13 0.14 0.17 0.21 0.26 0.29 0.29 0.34 0.34 0.33 0.35 0.40 0.48 0.54 0.68 0.74 0.65 0.63 0.66 0.68 0.71 0.77 0.85 0.96 1.05 1.15 1.17 1.18 1.20 1.22 1.26 1.28 1.29 1.31 1.32 1.31 1.25 1.17 1.29 1.35 1.38 1.40 1.43 1.45 1.46 1.49 1.50 1.52 1.51 1.48 1.44 1.41 1.39 1.37 1.31 1.19 1.17 1.15 1.08 1.01 0.99 0.95 0.90 0.91 0.92 0.88 0.86 0.99 1.08 1.18 1.27 1.35 1.40 1.46 1.52 1.54 1.55 1.57 1.59 1.60 1.61
0.33 0.22 0.18 0.17 0.16 0.16 0.16 0.19 0.22 0.25 0.29 0.29 0.30 0.31 0.32 0.35 0.33 0.44 0.49 0.63 0.71 0.61 0.55 0.64 0.66 0.66 0.72 0.83 0.94 1.05 1.09 1.07 1.11 1.14 1.17 1.21 1.26 1.29 1.29 1.31 1.32 1.31 1.36 1.38 1.34 1.35 1.39 1.42 1.44 1.44 1.44 1.46 1.41 1.45 1.47 1.42 1.40 1.40 1.41 1.35 1.27 1.23 1.16 1.12 1.05 1.00 0.98 0.96 0.91 0.86 0.85 0.88 0.95 1.05 1.11 1.18 1.31 1.36 1.43 1.50 1.53 1.54 1.54 1.56 1.57 1.59
0.26 0.20 0.20 0.22 0.21 0.19 0.18 0.20 0.23 0.24 0.25 0.29 0.29 0.31 0.30 0.31 0.36 0.44 0.50 0.58 0.65 0.62 0.54 0.55 0.57 0.63 0.71 0.80 0.92 0.99 1.02 1.06 1.12 1.14 1.15 1.18 1.22 1.26 1.28 1.30 1.33 1.37 1.31 1.28 1.27 1.29 1.32 1.37 1.40 1.40 1.39 1.41 1.43 1.46 1.45 1.45 1.44 1.42 1.41 1.39 1.37 1.29 1.19 1.15 1.14 1.10 1.02 1.02 1.02 0.97 0.95 0.95 0.97 1.13 1.22 1.28 1.37 1.42 1.41 1.46 1.51 1.52 1.51 1.51 1.52 1.56
0.23 0.22 0.25 0.27 0.24 0.19 0.17 0.20 0.24 0.26 0.28 0.26 0.28 0.29 0.26 0.31 0.30 0.27 0.41 0.52 0.58 0.58 0.52 0.54 0.49 0.53 0.66 0.80 0.88 0.96 1.01 1.05 1.14 1.19 1.20 1.21 1.18 1.20 1.22 1.26 1.30 1.31 1.30 1.23 1.21 1.21 1.27 1.31 1.33 1.35 1.32 1.34 1.40 1.43 1.43 1.43 1.41 1.42 1.40 1.40 1.39 1.35 1.29 1.23 1.21 1.17 1.15 1.12 1.10 1.10 1.08 1.08 1.07 1.10 1.26 1.34 1.42 1.43 1.42 1.38 1.45 1.48 1.48 1.49 1.49 1.53
0.24 0.30 0.32 0.29 0.26 0.22 0.17 0.19 0.23 0.25 0.24 0.27 0.28 0.29 0.29 0.30 0.30 0.29 0.34 0.46 0.53 0.56 0.56 0.53 0.47 0.45 0.54 0.61 0.73 0.89 1.03 1.06 1.12 1.19 1.21 1.24 1.25 1.24 1.26 1.30 1.33 1.31 1.32 1.27 1.24 1.23 1.23 1.24 1.25 1.25 1.28 1.33 1.32 1.34 1.35 1.37 1.39 1.40 1.37 1.39 1.40 1.37 1.34 1.31 1.29 1.26 1.26 1.24 1.19 1.17 1.16 1.18 1.16 1.23 1.27 1.28 1.30 1.35 1.36 1.36 1.36 1.37 1.45 1.48 1.47 1.51
0.28 0.34 0.40 0.30 0.27 0.24 0.20 0.18 0.21 0.25 0.24 0.26 0.29 0.30 0.31 0.34 0.32 0.33 0.35 0.39 0.40 0.43 0.50 0.47 0.36 0.35 0.46 0.52 0.59 0.72 0.90 0.99 1.09 1.10 1.13 1.17 1.19 1.24 1.24 1.26 1.33 1.34 1.37 1.32 1.22 1.20 1.20 1.20 1.24 1.30 1.31 1.27 1.25 1.27 1.32 1.37 1.40 1.41 1.40 1.40 1.42 1.43 1.41 1.37 1.35 1.36 1.33 1.26 1.18 1.12 1.04 0.99 1.02 1.04 1.08 1.08 1.12 1.20 1.22 1.22 1.34 1.40 1.44 1.46 1.47 1.50
0.27 0.35 0.38 0.33 0.27 0.26 0.22 0.19 0.22 0.27 0.24 0.24 0.22 0.31 0.33 0.34 0.35 0.35 0.33 0.34 0.32 0.30 0.43 0.49 0.35 0.30 0.44 0.47 0.53 0.63 0.71 0.80 0.98 1.02 1.06 1.12 1.16 1.19 1.19 1.23 1.26 1.28 1.30 1.36 1.34 1.26 1.23 1.25 1.26 1.26 1.25 1.21 1.18 1.21 1.32 1.38 1.39 1.42 1.42 1.41 1.41 1.41 1.43 1.45 1.43 1.41 1.37 1.30 1.27 1.18 1.07 1.00 0.98 0.96 1.03 1.11 1.19 1.21 1.24 1.31 1.32 1.35 1.42 1.46 1.46 1.49
0.31 0.31 0.36 0.38 0.33 0.26 0.23 0.20 0.24 0.27 0.25 0.20 0.29 0.34 0.35 0.34 0.33 0.34 0.34 0.33 0.32 0.40 0.42 0.46 0.43 0.34 0.34 0.41 0.53 0.61 0.63 0.70 0.82 0.91 0.98 1.06 1.12 1.16 1.19 1.22 1.25 1.27 1.29 1.28 1.31 1.30 1.24 1.21 1.20 1.18 1.22 1.22 1.16 1.22 1.31 1.34 1.38 1.38 1.38 1.40 1.38 1.41 1.42 1.44 1.45 1.43 1.40 1.30 1.27 1.22 1.16 1.09 1.04 1.03 1.02 1.10 1.17 1.27 1.31 1.29 1.30 1.34 1.38 1.44 1.47 1.49
0.34 0.27 0.31 0.34 0.35 0.31 0.24 0.23 0.25 0.31 0.27 0.25 0.33 0.37 0.34 0.33 0.32 0.34 0.34 0.33 0.33 0.32 0.27 0.39 0.45 0.35 0.31 0.40 0.50 0.57 0.54 0.59 0.67 0.78 0.89 1.00 1.07 1.12 1.17 1.22 1.24 1.26 1.28 1.29 1.29 1.29 1.24 1.18 1.19 1.23 1.24 1.28 1.30 1.28 1.25 1.27 1.32 1.37 1.41 1.41 1.42 1.39 1.40 1.42 1.45 1.43 1.41 1.35 1.30 1.26 1.23 1.16 1.14 1.12 1.13 1.20 1.25 1.26 1.31 1.27 1.31 1.32 1.36 1.40 1.45 1.49
0.37 0.36 0.35 0.36 0.35 0.30 0.32 0.31 0.30 0.32 0.29 0.35 0.40 0.40 0.37 0.36 0.35 0.34 0.33 0.34 0.33 0.29 0.21 0.29 0.40 0.32 0.28 0.36 0.43 0.49 0.48 0.47 0.56 0.69 0.81 0.93 1.01 1.06 1.13 1.19 1.23 1.27 1.30 1.33 1.32 1.33 1.31 1.26 1.24 1.28 1.31 1.34 1.34 1.31 1.28 1.30 1.36 1.39 1.41 1.40 1.40 1.37 1.39 1.41 1.42 1.42 1.41 1.40 1.37 1.30 1.26 1.19 1.17 1.17 1.18 1.21 1.19 1.22 1.28 1.26 1.28 1.31 1.33 1.36 1.38 1.45
0.41 0.47 0.46 0.39 0.32 0.36 0.39 0.39 0.38 0.34 0.34 0.40 0.41 0.37 0.33 0.33 0.32 0.34 0.32 0.34 0.32 0.24 0.21 0.26 0.35 0.36 0.25 0.30 0.35 0.38 0.37 0.43 0.53 0.64 0.76 0.89 0.97 1.02 1.08 1.13 1.18 1.22 1.26 1.29 1.31 1.32 1.33 1.35 1.31 1.35 1.31 1.30 1.34 1.36 1.34 1.30 1.31 1.33 1.35 1.37 1.36 1.37 1.40 1.42 1.40 1.40 1.37 1.39 1.38 1.32 1.28 1.23 1.18 1.18 1.17 1.14 1.15 1.20 1.22 1.21 1.24 1.26 1.28 1.33 1.33 1.41
0.38 0.42 0.41 0.41 0.44 0.42 0.41 0.40 0.44 0.43 0.39 0.37 0.36 0.34 0.32 0.29 0.30 0.27 0.26 0.30 0.24 0.19 0.23 0.26 0.28 0.33 0.23 0.21 0.34 0.40 0.45 0.49 0.52 0.55 0.64 0.76 0.87 0.94 1.02 1.09 1.15 1.20 1.23 1.26 1.29 1.28 1.32 1.36 1.35 1.33 1.30 1.32 1.34 1.36 1.33 1.29 1.29 1.29 1.30 1.33 1.32 1.37 1.39 1.39 1.40 1.39 1.38 1.38 1.37 1.34 1.32 1.27 1.24 1.22 1.18 1.12 1.10 1.14 1.13 1.16 1.18 1.25 1.28 1.28 1.31 1.35
0.32 0.33 0.40 0.42 0.47 0.44 0.41 0.36 0.38 0.43 0.41 0.37 0.36 0.34 0.25 0.20 0.23 0.18 0.21 0.17 0.18 0.17 0.23 0.26 0.27 0.25 0.24 0.24 0.31 0.39 0.45 0.47 0.51 0.56 0.61 0.68 0.76 0.85 0.93 1.02 1.09 1.16 1.21 1.23 1.25 1.27 1.29 1.29 1.27 1.26 1.29 1.33 1.33 1.33 1.34 1.31 1.28 1.27 1.27 1.28 1.27 1.29 1.36 1.37 1.37 1.35 1.36 1.36 1.34 1.33 1.32 1.30 1.32 1.28 1.23 1.18 1.15 1.18 1.16 1.17 1.18 1.21 1.19 1.23 1.22 1.25
0.29 0.34 0.37 0.39 0.44 0.46 0.45 0.35 0.32 0.32 0.37 0.36 0.33 0.30 0.24 0.19 0.18 0.14 0.16 0.17 0.17 0.23 0.28 0.25 0.28 0.22 0.24 0.26 0.31 0.37 0.45 0.49 0.52 0.57 0.62 0.64 0.69 0.76 0.86 0.96 1.05 1.13 1.18 1.20 1.24 1.25 1.25 1.26 1.26 1.27 1.29 1.31 1.33 1.35 1.35 1.34 1.30 1.26 1.24 1.25 1.24 1.24 1.33 1.36 1.36 1.33 1.32 1.32 1.33 1.35 1.33 1.33 1.34 1.29 1.26 1.23 1.20 1.20 1.20 1.21 1.19 1.19 1.18 1.19 1.18 1.22
0.22 0.24 0.31 0.34 0.32 0.45 0.43 0.41 0.39 0.33 0.34 0.35 0.39 0.34 0.26 0.23 0.19 0.14 0.16 0.12 0.12 0.16 0.22 0.26 0.22 0.19 0.18 0.20 0.30 0.35 0.45 0.50 0.53 0.56 0.61 0.64 0.68 0.73 0.83 0.93 1.00 1.07 1.15 1.20 1.22 1.23 1.22 1.25 1.26 1.27 1.28 1.31 1.34 1.36 1.37 1.35 1.33 1.31 1.25 1.23 1.21 1.22 1.30 1.33 1.33 1.33 1.29 1.29 1.32 1.34 1.36 1.36 1.36 1.32 1.29 1.26 1.24 1.23 1.21 1.22 1.20 1.21 1.23 1.20 1.21 1.21
0.27 0.25 0.32 0.40 0.40 0.48 0.45 0.48 0.50 0.44 0.36 0.36 0.39 0.40 0.31 0.25 0.30 0.21 0.23 0.20 0.18 0.15 0.14 0.19 0.21 0.27 0.24 0.30 0.33 0.38 0.43 0.47 0.50 0.52 0.56 0.58 0.64 0.72 0.81 0.91 0.98 1.04 1.11 1.18 1.20 1.21 1.22 1.26 1.28 1.30 1.32 1.34 1.35 1.38 1.38 1.35 1.33 1.29 1.26 1.25 1.21 1.20 1.24 1.30 1.33 1.32 1.30 1.28 1.30 1.32 1.32 1.33 1.34 1.35 1.33 1.29 1.28 1.27 1.26 1.23 1.20 1.20 1.22 1.23 1.23 1.25
0.29 0.24 0.34 0.38 0.41 0.41 0.45 0.51 0.49 0.51 0.31 0.34 0.37 0.32 0.30 0.39 0.37 0.29 0.29 0.30 0.25 0.19 0.11 0.17 0.18 0.23 0.27 0.27 0.30 0.34 0.39 0.42 0.46 0.47 0.49 0.52 0.60 0.70 0.76 0.82 0.91 0.99 1.06 1.14 1.17 1.19 1.20 1.25 1.29 1.30 1.30 1.33 1.35 1.36 1.35 1.34 1.33 1.27 1.26 1.26 1.23 1.23 1.26 1.28 1.30 1.30 1.31 1.31 1.29 1.29 1.31 1.32 1.32 1.31 1.27 1.23 1.21 1.22 1.25 1.24 1.22 1.20 1.20 1.24 1.24 1.23
0.27 0.25 0.35 0.35 0.32 0.40 0.49 0.54 0.56 0.55 0.52 0.44 0.31 0.32 0.45 0.47 0.41 0.32 0.21 0.23 0.20 0.13 0.11 0.16 0.13 0.16 0.18 0.14 0.28 0.30 0.33 0.38 0.40 0.41 0.44 0.49 0.57 0.66 0.72 0.79 0.85 0.93 1.01 1.09 1.13 1.17 1.20 1.23 1.24 1.26 1.29 1.31 1.31 1.33 1.36 1.37 1.38 1.36 1.32 1.29 1.26 1.24 1.20 1.23 1.28 1.29 1.30 1.28 1.27 1.27 1.28 1.30 1.30 1.28 1.26 1.26 1.24 1.26 1.25 1.24 1.24 1.24 1.21 1.18 1.21 1.24
0.35 0.24 0.32 0.37 0.37 0.40 0.47 0.50 0.51 0.59 0.61 0.49 0.36 0.44 0.35 0.31 0.27 0.32 0.29 0.19 0.16 0.14 0.13 0.15 0.17 0.16 0.18 0.18 0.25 0.28 0.28 0.34 0.37 0.38 0.41 0.45 0.53 0.58 0.65 0.74 0.83 0.90 0.97 1.04 1.09 1.14 1.19 1.22 1.24 1.27 1.27 1.30 1.34 1.38 1.41 1.42 1.43 1.40 1.36 1.34 1.31 1.24 1.21 1.22 1.26 1.29 1.32 1.32 1.29 1.28 1.27 1.27 1.28 1.28 1.28 1.28 1.30 1.30 1.25 1.22 1.22 1.20 1.18 1.20 1.23 1.23
0.38 0.27 0.29 0.41 0.38 0.41 0.42 0.43 0.36 0.46 0.57 0.58 0.56 0.47 0.47 0.38 0.28 0.25 0.27 0.25 0.25 0.17 0.15 0.11 0.16 0.12 0.19 0.22 0.26 0.26 0.31 0.33 0.35 0.35 0.36 0.41 0.48 0.54 0.60 0.68 0.77 0.86 0.92 0.97 1.05 1.10 1.15 1.18 1.21 1.25 1.26 1.28 1.32 1.35 1.40 1.43 1.43 1.37 1.36 1.33 1.31 1.30 1.29 1.28 1.29 1.30 1.28 1.29 1.30 1.29 1.31 1.31 1.31 1.29 1.26 1.27 1.27 1.26 1.23 1.22 1.22 1.20 1.19 1.18 1.21 1.20
0.34 0.41 0.25 0.35 0.41 0.40 0.31 0.37 0.35 0.42 0.44 0.48 0.48 0.46 0.45 0.39 0.42 0.39 0.33 0.28 0.23 0.18 0.16 0.13 0.11 0.13 0.18 0.24 0.26 0.28 0.29 0.33 0.36 0.34 0.34 0.37 0.44 0.53 0.59 0.65 0.73 0.81 0.87 0.93 0.99 1.05 1.11 1.15 1.19 1.24 1.29 1.32 1.37 1.42 1.45 1.44 1.39 1.37 1.38 1.34 1.32 1.25 1.24 1.24 1.26 1.29 1.29 1.32 1.30 1.30 1.27 1.27 1.27 1.26 1.26 1.25 1.25 1.22 1.22 1.23 1.24 1.23 1.22 1.25 1.21 1.21
0.35 0.36 0.28 0.33 0.33 0.31 0.32 0.39 0.41 0.45 0.50 0.50 0.47 0.44 0.43 0.37 0.32 0.29 0.26 0.35 0.30 0.24 0.19 0.16 0.12 0.17 0.21 0.25 0.27 0.29 0.31 0.32 0.35 0.36 0.34 0.35 0.40 0.48 0.56 0.64 0.71 0.77 0.84 0.90 0.95 1.00 1.06 1.11 1.16 1.23 1.30 1.36 1.39 1.40 1.39 1.39 1.39 1.37 1.32 1.31 1.31 1.28 1.25 1.21 1.23 1.26 1.30 1.32 1.31 1.28 1.26 1.26 1.28 1.27 1.26 1.22 1.21 1.18 1.18 1.20 1.21 1.22 1.25 1.20 1.19 1.20
0.43 0.40 0.35 0.29 0.32 0.31 0.34 0.40 0.44 0.47 0.50 0.52 0.52 0.46 0.48 0.44 0.40 0.33 0.24 0.26 0.31 0.30 0.29 0.24 0.18 0.16 0.24 0.27 0.27 0.29 0.31 0.31 0.32 0.35 0.34 0.34 0.36 0.41 0.50 0.58 0.67 0.73 0.78 0.85 0.91 0.97 1.02 1.07 1.13 1.20 1.25 1.28 1.31 1.32 1.35 1.36 1.35 1.32 1.31 1.31 1.29 1.25 1.21 1.22 1.22 1.26 1.30 1.30 1.28 1.27 1.27 1.28 1.26 1.26 1.24 1.20 1.18 1.15 1.15 1.17 1.18 1.23 1.20 1.17 1.17 1.19
0.51 0.39 0.31 0.31 0.35 0.36 0.38 0.42 0.44 0.47 0.48 0.47 0.50 0.51 0.48 0.41 0.39 0.32 0.30 0.32 0.28 0.28 0.25 0.22 0.19 0.15 0.23 0.28 0.29 0.29 0.29 0.30 0.31 0.32 0.34 0.34 0.36 0.39 0.44 0.51 0.59 0.67 0.74 0.82 0.89 0.95 1.00 1.05 1.14 1.20 1.23 1.27 1.30 1.33 1.35 1.35 1.35 1.35 1.33 1.29 1.26 1.21 1.21 1.23 1.24 1.25 1.28 1.29 1.28 1.29 1.29 1.26 1.26 1.25 1.22 1.18 1.17 1.14 1.14 1.15 1.16 1.19 1.16 1.15 1.16 1.13
0.37 0.39 0.34 0.27 0.26 0.29 0.31 0.35 0.39 0.44 0.47 0.45 0.45 0.48 0.49 0.46 0.42 0.40 0.37 0.36 0.28 0.27 0.25 0.21 0.15 0.12 0.21 0.27 0.29 0.30 0.30 0.29 0.28 0.28 0.30 0.32 0.34 0.37 0.40 0.45 0.54 0.59 0.63 0.70 0.80 0.88 0.99 1.08 1.13 1.15 1.18 1.22 1.26 1.30 1.33 1.35 1.34 1.33 1.30 1.29 1.24 1.20 1.22 1.23 1.25 1.25 1.24 1.25 1.25 1.28 1.28 1.27 1.27 1.22 1.20 1.17 1.17 1.14 1.14 1.14 1.15 1.16 1.13 1.13 1.10 1.09
0.46 0.41 0.35 0.25 0.22 0.21 0.21 0.22 0.27 0.31 0.37 0.43 0.47 0.47 0.48 0.45 0.41 0.37 0.32 0.32 0.25 0.25 0.26 0.21 0.17 0.16 0.26 0.28 0.28 0.28 0.28 0.27 0.27 0.27 0.26 0.27 0.30 0.35 0.40 0.43 0.47 0.54 0.59 0.64 0.70 0.84 0.94 1.03 1.08 1.10 1.15 1.20 1.25 1.28 1.31 1.33 1.33 1.33 1.31 1.28 1.28 1.22 1.22 1.24 1.27 1.26 1.24 1.24 1.23 1.25 1.26 1.26 1.26 1.22 1.19 1.17 1.16 1.15 1.15 1.14 1.13 1.11 1.12 1.12 1.08 1.09
0.46 0.42 0.38 0.34 0.29 0.27 0.28 0.32 0.39 0.41 0.39 0.37 0.41 0.46 0.45 0.46 0.44 0.41 0.37 0.31 0.25 0.25 0.24 0.23 0.21 0.17 0.23 0.25 0.27 0.29 0.30 0.28 0.29 0.29 0.27 0.24 0.24 0.27 0.35 0.38 0.41 0.46 0.53 0.60 0.66 0.76 0.90 0.99 1.03 1.07 1.12 1.17 1.22 1.27 1.30 1.32 1.32 1.31 1.30 1.29 1.30 1.27 1.24 1.24 1.25 1.26 1.24 1.24 1.23 1.22 1.23 1.24 1.23 1.23 1.20 1.19 1.17 1.18 1.17 1.14 1.12 1.11 1.08 1.11 1.09 1.08
0.44 0.38 0.38 0.36 0.35 0.36 0.37 0.37 0.40 0.40 0.36 0.39 0.40 0.42 0.46 0.45 0.44 0.39 0.33 0.27 0.30 0.28 0.21 0.25 0.24 0.21 0.19 0.22 0.27 0.31 0.32 0.32 0.32 0.32 0.32 0.29 0.28 0.27 0.28 0.33 0.38 0.43 0.48 0.57 0.65 0.70 0.80 0.91 0.99 1.05 1.11 1.15 1.20 1.27 1.31 1.34 1.33 1.30 1.28 1.26 1.27 1.28 1.27 1.27 1.25 1.25 1.25 1.25 1.23 1.21 1.21 1.22 1.25 1.25 1.23 1.22 1.20 1.18 1.16 1.14 1.12 1.10 1.10 1.12 1.09 1.06
0.41 0.36 0.40 0.38 0.35 0.39 0.40 0.39 0.40 0.40 0.39 0.40 0.41 0.44 0.44 0.46 0.44 0.37 0.33 0.33 0.33 0.25 0.20 0.25 0.26 0.23 0.23 0.25 0.36 0.35 0.34 0.32 0.32 0.32 0.32 0.32 0.32 0.32 0.30 0.30 0.34 0.39 0.46 0.53 0.60 0.67 0.74 0.83 0.93 1.00 1.06 1.12 1.18 1.24 1.29 1.32 1.34 1.35 1.33 1.32 1.31 1.29 1.27 1.29 1.26 1.23 1.22 1.22 1.20 1.20 1.21 1.24 1.25 1.26 1.25 1.23 1.20 1.17 1.14 1.13 1.12 1.12 1.12 1.11 1.08 1.07
0.44 0.39 0.41 0.40 0.35 0.38 0.39 0.39 0.41 0.39 0.40 0.40 0.42 0.46 0.49 0.51 0.49 0.46 0.40 0.39 0.34 0.28 0.28 0.29 0.27 0.25 0.29 0.38 0.41 0.53 0.54 0.51 0.48 0.49 0.48 0.43 0.36 0.33 0.33 0.33 0.34 0.37 0.43 0.51 0.57 0.62 0.70 0.78 0.85 0.94 1.02 1.09 1.15 1.22 1.28 1.31 1.32 1.31 1.27 1.25 1.27 1.27 1.30 1.32 1.27 1.25 1.24 1.22 1.20 1.22 1.24 1.25 1.24 1.23 1.22 1.20 1.16 1.14 1.13 1.13 1.12 1.11 1.10 1.09 1.08 1.07
0.43 0.37 0.45 0.41 0.34 0.34 0.38 0.40 0.40 0.39 0.39 0.39 0.47 0.55 0.56 0.57 0.52 0.49 0.46 0.42 0.39 0.33 0.31 0.27 0.26 0.25 0.38 0.54 0.63 0.67 0.68 0.64 0.59 0.53 0.52 0.52 0.48 0.43 0.39 0.35 0.36 0.38 0.41 0.49 0.56 0.58 0.63 0.72 0.84 0.93 1.00 1.06 1.12 1.19 1.25 1.29 1.30 1.30 1.29 1.27 1.26 1.26 1.30 1.30 1.26 1.25 1.24 1.22 1.25 1.26 1.28 1.26 1.23 1.22 1.18 1.16 1.16 1.15 1.14 1.12 1.12 1.11 1.09 1.08 1.08 1.07
0.47 0.41 0.45 0.40 0.32 0.30 0.37 0.38 0.38 0.39 0.41 0.42 0.48 0.53 0.55 0.54 0.48 0.50 0.44 0.51 0.41 0.32 0.32 0.28 0.25 0.27 0.50 0.66 0.72 0.73 0.64 0.57 0.53 0.55 0.55 0.57 0.57 0.51 0.44 0.41 0.42 0.41 0.41 0.46 0.54 0.57 0.59 0.69 0.80 0.91 0.97 1.03 1.11 1.19 1.25 1.28 1.31 1.31 1.27 1.26 1.24 1.26 1.30 1.28 1.26 1.23 1.23 1.24 1.27 1.28 1.26 1.25 1.24 1.20 1.17 1.18 1.15 1.14 1.14 1.15 1.13 1.10 1.08 1.08 1.07 1.08
0.45 0.42 0.39 0.38 0.31 0.29 0.36 0.38 0.37 0.39 0.40 0.38 0.44 0.54 0.60 0.60 0.64 0.63 0.61 0.59 0.54 0.51 0.34 0.28 0.33 0.56 0.65 0.75 0.68 0.66 0.66 0.61 0.59 0.61 0.60 0.62 0.65 0.59 0.50 0.48 0.48 0.46 0.42 0.46 0.53 0.58 0.61 0.67 0.76 0.87 0.96 1.04 1.10 1.16 1.22 1.27 1.27 1.25 1.25 1.25 1.26 1.30 1.27 1.25 1.25 1.24 1.24 1.26 1.27 1.26 1.26 1.26 1.22 1.19 1.18 1.17 1.17 1.17 1.17 1.15 1.12 1.10 1.08 1.06 1.08 1.11
0.46 0.44 0.40 0.42 0.31 0.30 0.35 0.36 0.40 0.37 0.28 0.32 0.57 0.68 0.68 0.61 0.61 0.58 0.56 0.58 0.60 0.57 0.50 0.61 0.60 0.73 0.79 0.76 0.72 0.69 0.68 0.67 0.71 0.79 0.85 0.79 0.73 0.63 0.49 0.49 0.51 0.50 0.48 0.49 0.55 0.59 0.64 0.70 0.79 0.89 0.97 1.04 1.10 1.14 1.21 1.27 1.25 1.27 1.32 1.33 1.35 1.31 1.28 1.27 1.28 1.30 1.30 1.33 1.32 1.32 1.31 1.29 1.25 1.20 1.19 1.20 1.20 1.19 1.16 1.13 1.10 1.10 1.12 1.12 1.14 1.13
0.44 0.44 0.41 0.42 0.34 0.31 0.35 0.36 0.34 0.27 0.30 0.52 0.65 0.74 0.76 0.73 0.70 0.64 0.68 0.66 0.65 0.65 0.65 0.66 0.67 0.70 0.80 0.85 0.83 0.81 0.83 0.86 0.89 0.85 0.85 0.90 0.87 0.80 0.63 0.50 0.51 0.50 0.52 0.57 0.60 0.64 0.69 0.74 0.83 0.93 1.04 1.13 1.18 1.24 1.28 1.32 1.36 1.39 1.38 1.36 1.34 1.34 1.32 1.32 1.33 1.34 1.37 1.36 1.39 1.40 1.39 1.38 1.35 1.31 1.29 1.28 1.25 1.21 1.17 1.15 1.14 1.14 1.16 1.18 1.17 1.16
0.44 0.42 0.41 0.40 0.38 0.37 0.33 0.31 0.25 0.29 0.51 0.58 0.66 0.74 0.79 0.78 0.73 0.68 0.65 0.68 0.67 0.66 0.69 0.66 0.71 0.75 0.82 0.87 0.90 0.93 0.91 0.92 0.93 0.93 0.93 0.96 0.98 0.90 0.78 0.63 0.56 0.56 0.55 0.58 0.63 0.69 0.73 0.78 0.83 0.93 1.04 1.17 1.23 1.25 1.28 1.29 1.34 1.35 1.35 1.37 1.34 1.34 1.34 1.35 1.34 1.36 1.39 1.39 1.42 1.44 1.46 1.46 1.45 1.45 1.44 1.42 1.38 1.33 1.28 1.26 1.23 1.20 1.24 1.25 1.25 1.26
0.48 0.46 0.44 0.37 0.40 0.30 0.32 0.31 0.34 0.50 0.48 0.51 0.55 0.64 0.70 0.65 0.65 0.59 0.50 0.62 0.71 0.72 0.72 0.70 0.73 0.77 0.83 0.90 0.94 0.96 0.96 0.93 0.82 0.83 1.02 1.02 1.03 1.05 0.96 0.82 0.71 0.64 0.66 0.70 0.73 0.76 0.82 0.86 0.93 1.06 1.16 1.20 1.24 1.26 1.27 1.33 1.36 1.36 1.36 1.34 1.33 1.33 1.34 1.35 1.34 1.34 1.36 1.37 1.43 1.47 1.51 1.53 1.53 1.53 1.53 1.54 1.51 1.49 1.48 1.46 1.44 1.42 1.43 1.36 1.33 1.29
0.51 0.43 0.44 0.38 0.34 0.38 0.32 0.32 0.35 0.36 0.33 0.41 0.56 0.71 0.79 0.77 0.77 0.73 0.65 0.61 0.76 0.78 0.80 0.77 0.74 0.77 0.81 0.89 0.93 0.97 0.97 0.75 0.62 0.75 1.00 1.09 1.13 1.10 1.09 1.02 0.93 0.84 0.79 0.78 0.83 0.87 0.91 1.00 1.11 1.19 1.20 1.23 1.26 1.30 1.33 1.35 1.35 1.35 1.34 1.34 1.35 1.32 1.31 1.31 1.31 1.35 1.37 1.38 1.45 1.50 1.54 1.57 1.58 1.59 1.61 1.63 1.62 1.63 1.66 1.68 1.68 1.65 1.66 1.56 1.49 1.42
0.52 0.51 0.48 0.42 0.37 0.36 0.34 0.33 0.34 0.31 0.37 0.50 0.56 0.69 0.79 0.84 0.84 0.81 0.65 0.54 0.75 0.81 0.83 0.81 0.78 0.79 0.81 0.85 0.92 0.95 0.80 0.60 0.66 0.84 1.05 1.15 1.17 1.18 1.10 1.07 1.05 0.99 0.95 0.92 0.87 0.87 0.95 1.05 1.12 1.18 1.23 1.27 1.26 1.31 1.35 1.36 1.37 1.36 1.34 1.35 1.34 1.33 1.30 1.29 1.34 1.39 1.41 1.45 1.52 1.58 1.62 1.65 1.66 1.67 1.68 1.68 1.71 1.73 1.72 1.73 1.74 1.77 1.78 1.74 1.70 1.64
0.46 0.45 0.45 0.40 0.37 0.37 0.36 0.35 0.34 0.41 0.42 0.54 0.65 0.74 0.84 0.88 0.88 0.72 0.44 0.47 0.75 0.81 0.85 0.85 0.80 0.80 0.83 0.88 0.94 0.89 0.79 0.66 0.74 0.94 1.15 1.24 1.25 1.24 1.17 1.11 1.08 1.06 1.04 1.05 1.05 1.06 1.10 1.16 1.17 1.18 1.20 1.21 1.24 1.32 1.35 1.37 1.37 1.35 1.34 1.34 1.35 1.32 1.30 1.34 1.39 1.46 1.50 1.54 1.57 1.61 1.62 1.66 1.67 1.69 1.70 1.72 1.74 1.77 1.77 1.80 1.79 1.79 1.78 1.79 1.79 1.76
0.41 0.42 0.44 0.37 0.38 0.38 0.37 0.39 0.45 0.46 0.57 0.63 0.70 0.79 0.92 0.96 0.81 0.50 0.40 0.61 0.81 0.83 0.86 0.87 0.85 0.84 0.86 0.85 0.90 0.84 0.90 0.97 1.07 1.18 1.25 1.31 1.27 1.24 1.26 1.25 1.21 1.19 1.12 1.11 1.11 1.19 1.20 1.22 1.21 1.21 1.23 1.26 1.30 1.31 1.35 1.37 1.35 1.34 1.35 1.37 1.33 1.30 1.34 1.42 1.48 1.50 1.51 1.54 1.56 1.57 1.60 1.65 1.67 1.68 1.72 1.75 1.75 1.79 1.79 1.80 1.78 1.79 1.78 1.77 1.80 1.80
0.42 0.43 0.43 0.45 0.40 0.38 0.40 0.38 0.40 0.47 0.59 0.70 0.74 0.86 0.92 0.78 0.51 0.48 0.69 0.90 0.89 0.86 0.89 0.89 0.86 0.88 0.89 0.88 0.89 0.93 1.01 1.09 1.16 1.24 1.26 1.28 1.28 1.27 1.28 1.27 1.26 1.24 1.25 1.25 1.25 1.24 1.26 1.28 1.29 1.32 1.36 1.39 1.37 1.35 1.35 1.35 1.31 1.33 1.36 1.36 1.32 1.36 1.46 1.49 1.52 1.55 1.56 1.56 1.56 1.59 1.63 1.67 1.72 1.75 1.76 1.79 1.80 1.78 1.77 1.81 1.83 1.81 1.80 1.79 1.78 1.76
0.41 0.38 0.36 0.38 0.44 0.43 0.43 0.39 0.39 0.34 0.56 0.74 0.75 0.82 0.85 0.65 0.62 0.73 0.81 0.86 0.89 0.88 0.89 0.90 0.90 0.90 0.91 0.89 0.95 0.99 1.06 1.11 1.17 1.19 1.23 1.28 1.29 1.27 1.28 1.28 1.25 1.24 1.24 1.25 1.26 1.33 1.34 1.32 1.34 1.38 1.41 1.46 1.45 1.43 1.40 1.37 1.35 1.37 1.39 1.36 1.41 1.52 1.56 1.59 1.60 1.59 1.59 1.61 1.62 1.61 1.60 1.62 1.65 1.69 1.74 1.75 1.77 1.76 1.74 1.80 1.81 1.81 1.81 1.78 1.74 1.72
0.51 0.39 0.39 0.42 0.49 0.37 0.38 0.37 0.39 0.52 0.63 0.73 0.75 0.67 0.78 0.80 0.82 0.79 0.81 0.79 0.83 0.86 0.86 0.90 0.90 0.94 0.93 0.92 0.95 1.01 1.07 1.11 1.13 1.15 1.20 1.27 1.30 1.33 1.33 1.33 1.33 1.31 1.31 1.35 1.39 1.41 1.43 1.40 1.43 1.45 1.50 1.53 1.54 1.54 1.51 1.45 1.42 1.43 1.44 1.47 1.63 1.66 1.67 1.68 1.69 1.68 1.63 1.60 1.60 1.60 1.59 1.58 1.61 1.65 1.67 1.67 1.69 1.69 1.67 1.70 1.73 1.76 1.76 1.75 1.72 1.68
0.51 0.45 0.49 0.41 0.52 0.47 0.43 0.50 0.61 0.67 0.69 0.73 0.79 0.84 0.89 0.88 0.89 0.83 0.83 0.82 0.78 0.81 0.88 0.87 0.87 0.92 1.00 0.95 0.96 1.01 1.03 1.09 1.06 1.08 1.13 1.20 1.27 1.30 1.32 1.34 1.35 1.33 1.34 1.35 1.38 1.49 1.52 1.49 1.49 1.51 1.54 1.60 1.61 1.64 1.63 1.62 1.55 1.53 1.53 1.65 1.74 1.74 1.71 1.69 1.67 1.63 1.60 1.59 1.57 1.54 1.53 1.54 1.54 1.56 1.59 1.63 1.64 1.59 1.59 1.60 1.65 1.64 1.70 1.70 1.68 1.66
0.56 0.57 0.59 0.53 0.49 0.60 0.65 0.67 0.68 0.67 0.68 0.70 0.78 0.89 0.88 0.87 0.85 0.85 0.82 0.81 0.81 0.82 0.86 0.86 0.89 0.90 0.98 1.00 0.96 0.97 1.01 1.06 1.06 1.06 1.10 1.18 1.26 1.32 1.37 1.38 1.38 1.40 1.40 1.41 1.42 1.46 1.51 1.56 1.58 1.57 1.54 1.60 1.68 1.71 1.73 1.73 1.70 1.60 1.64 1.74 1.72 1.70 1.67 1.61 1.55 1.50 1.49 1.52 1.52 1.52 1.49 1.42 1.40 1.43 1.48 1.53 1.57 1.57 1.59 1.56 1.55 1.52 1.57 1.60 1.61 1.61
0.56 0.57 0.54 0.47 0.53 0.51 0.45 0.63 0.61 0.63 0.66 0.67 0.73 0.86 0.91 0.90 0.87 0.86 0.83 0.83 0.84 0.82 0.83 0.87 0.90 0.90 0.95 1.00 0.99 0.93 0.91 1.02 1.08 1.05 1.08 1.13 1.21 1.29 1.33 1.35 1.36 1.37 1.40 1.38 1.45 1.49 1.47 1.48 1.46 1.50 1.53 1.54 1.63 1.67 1.70 1.68 1.68 1.67 1.67 1.65 1.65 1.62 1.58 1.52 1.49 1.45 1.39 1.34 1.39 1.43 1.43 1.37 1.34 1.33 1.37 1.41 1.48 1.53 1.56 1.57 1.55 1.52 1.50 1.50 1.50 1.53
0.45 0.60 0.50 0.49 0.50 0.47 0.46 0.57 0.62 0.66 0.69 0.69 0.76 0.81 0.84 0.87 0.89 0.87 0.87 0.87 0.87 0.86 0.84 0.85 0.89 0.88 0.95 0.97 1.00 0.96 0.88 0.91 1.03 1.04 1.01 1.02 1.10 1.22 1.31 1.34 1.36 1.38 1.42 1.48 1.50 1.51 1.48 1.44 1.39 1.38 1.40 1.40 1.44 1.46 1.45 1.42 1.39 1.40 1.43 1.48 1.51 1.50 1.47 1.40 1.37 1.32 1.28 1.27 1.31 1.35 1.37 1.34 1.34 1.34 1.35 1.37 1.39 1.39 1.44 1.50 1.52 1.48 1.45 1.44 1.45 1.45
0.53 0.56 0.43 0.49 0.46 0.50 0.54 0.59 0.61 0.64 0.71 0.73 0.76 0.81 0.86 0.87 0.87 0.87 0.87 0.86 0.85 0.85 0.84 0.86 0.88 0.87 0.89 0.98 1.04 0.97 0.87 0.85 0.93 1.01 0.97 0.90 0.98 1.05 1.18 1.29 1.34 1.38 1.42 1.44 1.49 1.52 1.48 1.45 1.41 1.38 1.35 1.36 1.40 1.40 1.37 1.33 1.35 1.37 1.36 1.35 1.34 1.30 1.23 1.21 1.23 1.25 1.25 1.30 1.28 1.29 1.32 1.29 1.28 1.29 1.31 1.33 1.36 1.36 1.37 1.37 1.41 1.44 1.49 1.57 1.59 1.55
0.50 0.43 0.51 0.48 0.41 0.41 0.44 0.50 0.57 0.50 0.53 0.61 0.67 0.74 0.80 0.86 0.87 0.85 0.86 0.84 0.82 0.82 0.85 0.84 0.85 0.89 0.93 0.96 0.98 0.99 0.91 0.82 0.84 0.90 0.96 0.92 0.87 0.89 0.96 1.11 1.25 1.34 1.40 1.46 1.49 1.49 1.49 1.47 1.42 1.39 1.36 1.35 1.38 1.35 1.35 1.36 1.38 1.42 1.44 1.43 1.39 1.34 1.24 1.21 1.21 1.21 1.24 1.27 1.28 1.29 1.29 1.27 1.26 1.26 1.27 1.29 1.31 1.34 1.38 1.45 1.47 1.50 1.52 1.54 1.61 1.64
0.47 0.49 0.49 0.43 0.42 0.41 0.50 0.56 0.60 0.60 0.60 0.63 0.67 0.73 0.77 0.83 0.86 0.85 0.84 0.83 0.83 0.83 0.88 0.89 0.83 0.85 0.88 0.94 0.98 0.95 0.92 0.87 0.76 0.82 0.87 0.91 0.87 0.86 0.86 0.95 1.05 1.21 1.34 1.41 1.42 1.41 1.42 1.42 1.42 1.37 1.33 1.33 1.36 1.35 1.33 1.34 1.37 1.38 1.39 1.37 1.34 1.31 1.28 1.25 1.19 1.18 1.20 1.26 1.26 1.31 1.30 1.28 1.25 1.25 1.27 1.31 1.33 1.37 1.39 1.43 1.52 1.58 1.61 1.61 1.63 1.65
Wind_Speed
25 24 26 27 26 25 25 24 25 22 21 21 22 22 22 23 22 22 21 20 18 17 17 18 18 19 17 17 18 19 20 19 17 17 17 17 16 16 17 17 17 17 17 17 18 20 20 21 22 22 22 23 24 24 24 25 26 26 26 25 25 24 23 22 22 21 20 20 19 18 17 17 16 15 15 14 14 13 12 11 10 10 9 8 8 7
27 28 29 28 25 24 24 24 25 25 23 21 21 21 22 23 23 23 22 21 19 18 18 18 18 19 18 17 18 20 20 20 19 19 18 19 17 17 18 18 18 17 16 16 18 19 20 21 22 22 22 23 25 25 25 25 26 26 26 26 25 25 24 23 22 22 21 20 20 19 18 18 17 16 15 15 14 14 13 12 11 10 10 9 8 8
29 31 29 26 24 24 25 25 25 26 26 24 22 21 21 22 22 23 23 22 21 20 19 18 19 19 19 18 19 20 21 22 22 22 21 20 19 18 18 19 18 17 16 17 18 19 20 21 22 23 23 24 25 25 25 25 26 26 26 26 26 25 25 24 23 22 21 21 20 20 19 18 17 16 16 15 15 15 14 13 12 11 11 10 9 8
30 30 27 25 25 26 26 26 26 26 26 26 25 23 22 21 21 22 23 22 22 21 20 19 19 19 19 19 20 22 23 23 24 24 23 21 21 20 20 20 19 19 18 18 18 19 20 21 22 23 23 24 25 25 25 26 26 26 26 26 26 26 25 24 24 23 22 21 21 20 19 18 18 17 16 16 16 15 14 13 13 12 11 10 9 9
32 27 25 27 27 27 28 27 27 26 25 26 27 26 24 22 22 22 21 21 22 22 21 19 19 20 20 20 21 21 23 23 23 24 22 22 23 22 20 20 20 20 19 19 19 19 20 21 22 22 23 24 25 26 26 26 26 26 26 26 26 26 26 25 25 24 23 22 21 21 20 19 18 18 17 17 16 16 15 14 13 13 12 11 10 9
33 28 24 28 30 29 29 29 28 27 25 25 27 27 25 23 23 22 21 21 20 21 21 20 19 20 20 22 22 21 22 23 22 22 23 23 23 22 21 20 20 20 20 20 20 19 20 21 21 22 23 24 25 26 26 26 27 27 26 26 26 26 26 25 25 25 24 23 22 22 21 20 20 19 18 18 17 17 16 15 14 13 13 12 11 10
33 30 26 27 30 31 30 30 29 28 26 25 25 25 24 24 23 23 22 22 22 22 21 20 20 20 20 21 23 22 23 23 22 22 23 24 23 23 22 22 21 21 20 20 20 20 20 20 21 22 23 24 25 26 26 26 27 27 27 26 26 26 26 25 25 25 25 24 23 23 23 22 21 20 20 19 18 17 16 16 15 14 13 13 12 11
32 32 30 28 28 30 31 30 29 28 27 25 22 23 24 24 25 24 23 24 23 22 22 21 20 21 21 22 23 22 23 24 24 23 23 24 24 24 24 23 22 22 22 21 20 20 21 21 22 23 23 24 25 26 26 27 27 28 28 27 26 26 26 26 25 25 25 25 24 23 23 23 22 22 20 19 19 18 17 17 16 15 14 13 13 12
31 33 33 30 28 28 30 30 28 29 28 24 21 22 24 24 25 25 25 25 24 22 25 25 22 21 22 22 22 22 24 24 24 24 24 24 25 25 25 24 24 23 22 22 22 22 21 21 22 23 23 24 24 25 26 27 27 28 28 28 27 27 26 26 26 26 26 25 24 24 23 23 23 22 21 20 19 18 18 18 17 16 15 14 13 13
30 32 33 32 30 28 27 27 27 30 29 24 21 20 21 23 24 25 26 26 24 25 28 27 24 22 21 23 24 22 24 24 24 24 24 24 26 26 26 26 25 24 23 23 23 23 23 22 22 23 23 23 24 25 26 27 27 28 29 28 28 28 27 27 26 26 26 25 24 24 24 23 23 22 21 20 20 19 19 18 18 17 16 15 14 13
31 30 31 33 33 29 26 25 27 30 29 25 23 21 19 21 22 23 25 25 25 27 29 28 26 23 22 24 26 24 23 23 22 23 23 24 26 27 27 27 26 25 24 23 24 24 24 23 23 22 23 23 24 24 25 27 28 29 29 29 29 29 28 27 27 26 26 26 25 24 24 23 23 22 22 22 21 21 20 19 19 18 17 16 15 14
32 32 31 31 32 31 28 27 27 28 29 27 26 24 22 21 21 22 23 25 27 27 27 28 26 26 25 25 26 25 24 24 23 24 24 24 25 26 27 27 27 26 25 25 25 24 24 23 23 23 24 24 24 24 25 27 28 29 30 30 30 29 29 29 28 27 27 26 26 25 24 24 23 23 23 23 22 21 21 20 19 18 17 16 15 14
33 34 32 30 31 32 31 30 29 28 29 30 28 26 25 22 21 23 23 24 27 25 24 25 25 26 27 26 26 25 25 25 25 25 25 25 26 27 27 28 28 27 27 26 25 25 24 24 23 23 24 24 24 24 25 26 27 29 30 30 30 30 30 30 29 28 27 27 26 25 25 24 24 24 23 23 23 22 21 21 20 19 18 17 16 15
33 34 34 33 32 32 33 33 32 30 30 31 31 29 28 24 22 24 23 23 24 24 23 23 23 25 25 25 27 28 27 26 25 26 27 26 27 27 27 27 28 28 28 27 27 26 25 25 24 24 24 24 24 24 25 26 27 28 30 31 31 31 31 31 30 29 28 28 27 26 25 25 24 24 24 23 23 22 22 22 21 20 19 18 17 16
32 32 35 35 32 32 34 34 33 30 30 31 31 30 30 27 24 23 22 22 22 22 23 24 24 23 21 22 25 27 28 28 27 27 27 27 27 27 26 27 27 28 29 28 27 27 27 26 25 25 25 24 24 25 25 26 26 28 29 31 32 31 32 31 31 30 29 28 28 27 26 25 25 25 24 23 23 23 22 22 22 21 20 19 18 17
32 33 32 32 32 31 32 33 31 30 30 30 29 30 32 30 26 22 21 22 21 20 23 25 26 23 20 20 21 23 27 29 28 28 27 27 27 25 24 25 27 28 29 28 28 28 28 27 26 26 26 25 25 25 25 26 27 28 29 30 31 32 32 32 31 31 30 29 28 28 27 26 26 25 24 24 23 23 23 23 22 22 21 20 18 17
31 34 32 30 31 32 31 30 32 33 31 29 31 33 31 28 26 24 23 21 20 21 23 25 26 24 20 20 21 21 24 26 27 27 27 27 27 24 24 25 27 29 29 29 29 29 29 28 27 27 27 26 25 25 26 27 27 29 29 30 31 32 32 33 32 31 30 29 29 28 28 27 26 26 25 25 24 24 23 23 23 22 21 20 19 18
29 33 34 31 32 33 30 28 32 34 31 29 31 32 28 25 27 27 24 21 21 22 22 23 26 25 22 21 21 22 23 25 26 26 25 26 25 25 25 26 27 29 30 30 30 30 30 29 28 28 27 27 27 26 26 26 27 28 30 30 31 32 33 33 33 32 31 30 29 29 29 28 27 26 26 25 25 24 24 24 23 22 22 21 20 19
30 31 33 32 32 32 31 31 31 33 34 31 29 30 28 26 28 28 26 24 23 22 21 21 24 25 25 23 21 23 24 25 26 25 25 25 25 25 26 26 28 29 30 30 30 30 30 29 29 28 28 27 27 27 26 26 27 28 30 31 31 32 33 33 33 32 31 31 30 29 29 29 28 27 26 26 25 25 25 24 23 23 22 22 21 20
30 30 32 32 30 29 32 35 33 33 34 32 29 29 30 29 28 29 27 25 23 22 21 20 21 23 25 24 22 23 24 25 25 25 24 24 25 26 26 26 28 29 29 29 30 30 30 30 30 30 29 28 28 27 26 26 27 28 30 31 32 32 33 33 33 33 32 31 30 29 29 29 28 27 27 26 26 26 25 25 24 23 23 22 22 21
31 30 31 32 30 29 31 34 34 33 32 33 32 31 31 30 28 27 27 27 25 22 21 20 21 22 23 22 23 24 24 24 25 25 25 24 25 26 26 26 28 29 30 30 29 30 30 30 30 30 30 29 28 27 26 27 27 28 29 30 31 32 33 33 33 33 32 32 31 30 29 29 29 28 27 27 26 26 26 25 25 24 23 23 22 22
31 31 31 31 31 31 32 32 32 32 31 32 33 32 32 31 27 26 27 28 28 25 22 21 21 22 21 20 22 23 23 24 24 25 25 24 25 27 27 27 27 29 30 30 30 30 30 30 30 30 30 29 28 27 27 28 27 28 29 30 31 32 32 33 33 33 33 32 31 31 30 29 29 28 28 27 27 27 26 26 25 25 24 23 23 22
31 31 31 32 33 34 35 33 32 33 33 33 32 32 32 30 29 29 27 26 27 27 25 22 22 23 22 20 20 21 22 23 24 25 24 25 26 26 27 28 27 28 29 30 30 29 29 30 30 30 31 30 30 29 29 28 28 28 29 30 31 31 32 32 33 33 33 33 32 32 31 30 29 29 28 28 27 27 27 26 26 25 25 24 23 23
30 31 31 32 32 33 34 33 30 31 32 32 31 31 31 31 31 30 27 25 25 26 25 24 23 23 21 20 20 20 20 21 23 24 25 25 25 25 27 28 27 27 28 28 28 28 29 29 29 29 30 30 30 30 29 29 28 28 29 30 30 31 32 32 32 33 33 33 33 32 31 31 30 29 29 28 27 27 27 26 26 25 25 25 24 23
29 31 31 29 29 29 30 31 29 28 29 31 31 30 30 30 30 30 28 25 25 27 26 24 23 21 19 18 18 19 20 20 21 23 25 25 25 25 26 27 27 28 28 27 27 28 29 29 29 29 29 29 30 30 30 30 29 29 29 30 30 30 31 32 32 32 33 33 33 33 32 31 31 30 29 28 28 27 27 26 26 25 25 25 24 24
29 31 32 30 30 30 29 29 28 28 28 30 31 31 30 28 28 29 29 28 28 27 27 26 24 21 18 17 16 17 18 19 19 20 22 24 25 25 26 27 28 29 29 28 28 28 29 29 29 30 29 29 30 30 30 30 30 29 30 30 30 30 30 31 31 32 32 33 33 33 32 32 31 30 30 29 28 28 27 27 26 25 25 25 24 24
30 31 33 33 34 33 30 29 29 28 29 30 30 31 31 30 29 29 29 31 30 27 27 28 26 23 22 21 19 18 19 19 19 18 20 22 23 24 25 27 28 30 31 30 29 29 29 30 31 31 30 29 30 30 31 31 30 30 30 30 30 29 29 30 31 31 32 32 32 32 33 32 32 31 30 29 29 28 28 27 26 26 25 25 25 24
30 31 33 34 35 35 32 31 30 30 30 30 30 31 32 31 30 30 32 32 29 27 29 28 24 23 24 22 19 19 21 21 21 20 20 22 24 25 26 27 29 32 33 32 30 30 30 31 31 31 30 30 30 31 31 31 31 30 30 30 30 29 29 29 30 31 32 32 32 32 32 32 31 31 30 30 29 29 28 27 27 26 25 25 25 24
30 30 32 34 35 35 34 32 32 31 31 31 30 31 33 32 32 33 34 33 30 30 30 26 24 25 23 19 17 19 20 21 21 22 22 22 24 25 26 27 29 33 35 33 32 31 31 31 31 31 30 30 30 31 32 31 31 30 30 30 30 29 29 28 29 30 31 32 32 32 31 31 31 31 31 30 30 29 28 28 27 26 26 25 25 24
30 30 31 32 33 34 34 33 32 31 31 31 30 30 31 32 34 34 35 34 33 32 29 25 25 25 21 18 19 19 20 20 20 19 19 20 22 24 26 27 29 32 35 35 34 33 32 31 31 31 30 30 30 31 32 32 31 31 30 30 30 30 29 28 28 29 30 31 31 31 31 31 30 30 31 30 30 29 29 28 27 26 26 25 25 25
29 30 29 30 31 32 33 33 32 31 30 30 29 28 27 28 30 32 32 31 31 31 28 26 27 25 21 20 21 20 18 17 16 16 15 16 19 22 24 26 28 30 34 36 35 34 33 31 31 31 30 30 30 32 32 32 31 31 31 30 30 30 29 29 28 29 29 30 30 31 31 30 30 30 30 30 30 29 29 28 27 27 26 26 25 25
29 30 29 29 29 30 32 32 32 31 30 28 27 25 25 25 25 27 28 28 29 30 28 25 26 25 23 22 22 20 18 16 15 14 14 14 16 18 22 24 26 28 32 35 36 35 33 31 31 31 31 30 31 32 33 32 31 31 30 30 30 29 29 29 28 28 29 29 29 30 30 30 30 30 30 30 30 29 29 28 28 27 26 26 26 25
28 29 29 28 28 30 32 31 30 30 29 27 26 24 25 25 24 25 26 25 27 29 27 25 26 25 24 23 21 19 17 16 15 14 13 14 14 15 19 22 25 27 30 34 36 35 33 31 30 31 31 31 32 33 33 33 32 31 30 30 30 29 29 29 28 28 28 28 28 29 29 29 29 29 29 29 29 29 28 28 28 27 27 26 26 25
27 29 29 27 27 29 30 29 30 31 29 28 27 24 24 24 23 23 24 23 24 26 26 26 26 24 24 23 21 20 18 16 15 13 12 12 11 12 16 20 23 25 27 30 34 34 33 30 29 30 31 31 32 33 32 32 31 30 30 29 29 29 29 29 28 28 28 28 28 28 28 29 29 29 29 28 28 28 28 28 28 27 27 26 26 26
26 28 28 27 27 27 27 28 30 30 29 29 27 23 22 24 24 23 24 22 21 22 23 24 24 23 23 22 22 22 20 18 15 12 10 10 10 10 13 18 21 24 25 27 30 32 32 30 29 29 30 31 31 31 31 31 30 30 29 29 29 29 29 29 28 28 28 28 28 28 28 29 28 28 28 28 27 27 27 27 27 27 27 26 26 26
25 26 26 27 27 26 26 28 30 29 28 28 26 22 22 24 24 24 24 21 19 21 22 23 24 23 23 22 21 21 21 19 15 11 9 9 10 10 11 15 19 22 24 26 28 30 30 30 29 29 30 30 31 31 31 31 30 30 30 29 29 29 29 29 29 28 28 28 28 28 28 28 28 28 28 27 27 27 27 27 27 26 26 26 26 26
25 25 25 25 26 25 25 26 28 28 27 27 26 24 23 25 25 25 24 22 20 21 22 23 24 23 22 22 20 20 21 19 15 13 11 10 10 10 11 13 17 20 22 24 26 27 28 28 28 29 29 30 30 31 31 31 30 30 30 29 29 28 28 28 28 28 28 28 28 28 28 28 28 28 27 27 27 27 27 27 26 26 26 26 26 25
24 24 24 24 24 24 24 25 27 28 28 28 27 25 25 26 27 27 26 23 21 20 20 22 23 22 21 21 19 19 20 18 16 16 14 11 10 11 11 12 14 18 21 23 25 27 27 27 28 28 29 29 30 30 30 31 30 30 29 29 28 28 28 28 28 27 27 27 27 27 27 27 27 27 27 27 27 27 27 27 26 26 26 26 26 25
24 23 23 23 23 23 24 25 26 27 27 27 25 24 25 26 27 27 27 24 21 20 20 21 22 21 21 20 19 19 19 18 18 18 16 13 12 11 12 12 13 16 19 22 25 27 27 28 28 28 29 29 29 30 30 30 30 29 29 28 28 28 27 27 27 26 26 27 27 27 27 27 27 27 27 27 27 27 27 27 26 26 26 26 26 26
22 22 23 24 23 24 25 25 25 26 26 25 23 22 23 26 27 28 26 23 21 20 20 21 21 21 20 19 19 20 19 18 19 18 17 15 13 12 12 12 13 15 17 20 23 26 27 27 27 27 27 28 29 29 30 30 29 29 28 28 28 28 27 27 27 26 26 26 26 26 26 26 26 27 26 26 26 26 26 26 26 26 26 26 26 26
19 20 22 24 23 24 26 25 25 26 25 24 23 20 21 25 27 26 24 24 22 21 21 21 21 20 20 20 20 20 19 19 19 18 16 14 13 12 13 13 13 14 17 20 23 24 25 26 26 26 26 26 27 28 29 29 28 28 28 28 28 27 27 26 26 25 25 25 25 26 26 26 27 27 27 26 26 26 26 25 25 26 26 26 26 27
16 17 19 21 22 23 25 25 26 26 24 21 21 20 19 23 25 24 24 24 21 20 20 21 21 20 20 20 20 20 19 19 18 16 14 13 12 13 13 13 14 15 16 19 22 23 24 25 25 24 24 25 26 27 28 27 27 27 27 27 27 26 26 25 25 25 25 25 25 25 26 26 27 27 27 27 26 26 26 25 25 25 25 25 26 27
12 14 16 18 20 21 23 24 25 26 23 19 19 19 18 21 23 24 24 23 21 20 20 21 21 21 20 20 20 19 19 19 17 15 14 13 13 13 13 14 14 15 16 18 20 22 23 24 24 23 23 24 25 26 26 26 26 26 26 26 25 25 24 24 25 25 25 25 25 25 25 26 26 26 26 27 27 27 26 26 26 26 25 25 25 26
9 11 14 16 18 20 22 23 24 25 23 20 19 18 18 20 22 23 24 23 21 20 20 21 22 21 20 20 20 19 20 19 17 15 15 14 14 14 14 15 15 14 15 18 20 20 22 23 23 23 23 23 24 24 25 25 25 24 24 24 24 24 24 24 24 24 25 25 25 25 25 26 26 26 26 26 26 26 27 26 26 26 26 26 25 25
7 9 12 16 18 20 21 23 24 24 23 22 21 19 17 19 21 20 22 23 22 21 20 21 22 21 20 20 20 19 20 19 18 17 16 16 15 15 15 16 15 15 15 17 19 20 20 22 22 22 23 23 23 24 24 24 24 24 23 24 24 23 23 23 23 23 24 24 24 25 25 25 25 25 26 26 25 26 26 26 26 26 26 26 26 25
6 6 10 15 17 19 22 23 23 23 22 23 23 20 17 19 20 19 21 23 23 22 21 21 22 21 21 21 20 19 19 19 19 19 18 17 16 16 16 17 17 16 16 17 19 20 20 21 21 22 22 22 23 23 23 23 23 23 23 23 23 23 22 22 22 22 23 23 23 23 24 24 25 25 25 25 25 25 25 25 25 25 25 25 26 26
5 4 8 12 15 18 21 21 20 21 23 25 25 21 17 18 20 20 21 23 23 23 23 22 22 22 22 22 21 20 20 19 19 19 19 19 18 17 17 18 18 18 18 18 19 20 20 21 21 21 21 20 21 21 22 22 22 22 22 22 22 22 22 23 22 22 23 23 23 23 23 24 24 24 24 25 25 25 25 25 24 24 24 24 24 25
3 3 6 10 13 16 20 20 18 20 23 25 25 21 16 16 18 19 20 22 23 24 25 24 23 23 23 23 22 21 21 20 19 19 20 20 19 19 19 19 19 19 19 19 19 20 20 21 21 20 20 20 20 20 20 20 20 21 21 21 21 21 21 21 22 22 22 23 24 24 24 23 24 24 23 23 24 24 24 24 24 24 24 23 23 23
3 4 4 8 12 15 18 19 17 19 22 24 23 20 17 16 18 20 20 21 23 24 25 26 25 24 24 24 23 22 21 21 21 20 20 21 21 20 20 20 20 20 20 20 20 21 21 21 21 21 20 20 20 20 19 19 19 19 19 19 19 19 19 20 21 21 21 21 22 24 25 24 23 23 23 23 23 23 23 23 23 23 24 23 23 23
1 2 3 6 10 13 15 17 18 20 23 24 24 24 21 19 19 21 22 23 23 23 25 26 26 26 26 25 24 23 22 22 23 23 21 21 22 22 21 21 21 20 21 20 20 21 21 22 21 21 21 20 20 19 19 18 18 18 18 17 18 18 18 19 20 20 21 21 21 23 24 24 24 24 24 24 23 23 22 22 22 23 23 23 23 23
1 2 3 4 8 12 14 17 18 21 24 25 26 27 26 23 21 22 24 25 24 24 25 26 26 26 26 26 25 25 24 23 23 24 23 21 21 21 21 21 21 21 21 21 21 21 21 21 22 21 21 21 20 19 19 18 18 17 17 17 17 17 18 18 19 20 20 21 22 23 23 24 24 24 24 24 24 23 23 23 23 22 23 23 23 22
Wind_Direction
219 223 223 222 222 220 221 220 220 224 222 218 219 220 220 221 224 223 221 222 218 220 225 223 226 227 223 220 216 211 209 210 207 204 205 204 202 201 201 203 203 204 206 203 201 201 201 202 203 204 204 202 201 201 201 200 200 200 199 199 199 199 199 198 197 197 197 197 196 195 194 194 194 193 192 191 191 189 185 182 180 177 175 173 170 164
221 224 225 223 222 221 221 219 218 223 225 222 221 222 223 222 224 224 221 222 221 224 228 226 227 229 225 222 219 213 212 213 208 205 206 204 203 202 203 204 204 204 204 202 202 202 201 202 202 204 205 204 203 202 202 202 201 201 200 200 200 199 200 200 199 198 198 198 197 196 196 195 195 196 195 194 194 193 189 185 183 182 180 178 176 171
224 227 226 222 220 220 221 219 217 220 223 224 223 222 224 223 224 226 224 222 223 226 229 227 227 231 228 224 221 215 213 214 210 207 206 204 204 204 205 205 204 204 203 202 203 202 201 202 202 203 205 205 204 203 203 203 202 201 201 201 201 201 201 201 200 200 199 200 199 198 198 197 197 198 198 197 197 195 193 190 187 186 184 183 182 178
225 229 225 220 220 220 220 220 217 220 223 224 224 224 224 222 222 225 225 224 226 228 229 227 229 232 228 226 224 217 214 215 214 213 211 207 206 205 206 206 203 202 203 203 203 202 202 202 202 203 204 204 204 204 203 203 202 202 201 201 202 202 201 201 201 201 201 201 200 200 200 199 198 199 199 199 198 197 195 194 191 189 188 188 187 182
228 230 222 218 220 220 220 220 218 220 224 224 224 225 224 221 221 224 226 228 230 232 229 227 234 236 227 224 225 219 217 218 217 218 216 212 211 209 209 208 205 203 204 204 204 203 203 203 203 204 204 203 204 205 204 203 202 202 202 201 202 202 202 202 202 202 202 201 200 200 200 200 199 198 198 198 198 198 197 196 195 193 191 191 190 186
229 228 219 217 219 220 221 221 219 220 224 227 226 224 222 221 222 225 227 230 232 234 231 226 232 236 230 226 223 218 219 220 219 219 217 215 214 211 210 210 207 205 206 206 205 205 205 205 204 203 203 204 205 205 205 203 202 202 202 201 201 202 202 202 202 202 202 202 201 200 200 200 199 199 199 199 199 199 199 199 198 196 194 193 192 189
227 224 219 220 219 218 221 223 220 218 222 227 225 221 221 220 220 223 225 228 230 232 231 226 227 234 234 229 224 219 218 219 218 218 216 215 214 212 211 210 207 206 206 207 207 206 206 205 205 205 204 205 206 206 206 205 204 203 203 203 202 202 202 202 203 202 202 202 202 201 201 202 202 202 203 203 203 202 202 202 201 199 197 196 195 192
224 220 219 221 220 218 221 222 219 216 220 226 220 216 219 220 220 222 224 228 231 233 232 227 225 232 234 228 223 219 219 220 219 218 216 215 214 212 212 211 208 207 206 206 206 205 205 205 205 206 206 206 206 205 205 206 205 204 204 204 203 202 202 203 203 203 202 203 202 202 202 203 204 205 205 206 205 204 203 204 204 202 201 199 198 197
222 220 219 219 220 221 222 221 218 216 220 223 217 215 219 220 222 222 224 229 232 235 235 229 225 231 234 229 225 220 219 221 220 218 217 215 214 213 213 212 210 209 208 208 207 206 206 206 205 206 206 207 206 206 206 206 207 206 205 205 205 204 203 203 203 203 202 203 203 203 203 204 205 207 207 207 207 205 204 205 205 205 204 202 201 200
224 222 219 219 221 222 222 221 218 218 221 220 215 217 218 218 221 222 224 228 231 233 233 229 225 230 234 230 225 221 220 221 220 219 218 216 215 214 213 213 212 211 210 210 209 208 208 207 206 205 205 205 206 207 207 207 207 207 206 206 206 205 204 204 204 204 203 203 203 204 204 205 206 207 208 208 208 207 206 206 205 206 206 205 204 203
228 224 219 221 222 220 220 220 219 218 219 217 215 218 219 220 221 221 223 224 228 231 231 228 225 228 235 230 223 221 219 219 219 219 219 218 217 217 216 215 214 212 211 211 210 209 209 209 208 206 206 205 205 206 207 207 207 207 207 207 207 206 205 205 205 204 204 204 205 206 205 205 205 206 207 208 208 207 207 206 206 207 208 208 207 207
227 225 222 222 221 218 218 220 220 219 217 215 215 216 220 224 221 221 222 220 224 230 229 227 225 227 233 230 223 221 219 217 218 218 217 217 218 218 217 216 215 214 212 211 209 208 208 209 208 206 206 206 205 205 206 207 207 206 207 207 207 207 206 206 205 205 205 205 206 207 206 206 206 206 207 208 209 209 208 207 207 207 209 210 210 209
225 224 224 223 220 216 216 218 219 219 216 215 214 212 215 220 219 219 221 220 225 231 227 222 223 228 233 232 225 221 219 218 217 217 216 216 217 217 216 215 214 214 213 211 209 208 207 207 206 205 205 205 205 206 206 206 207 207 207 207 207 207 207 207 206 205 206 206 206 207 207 207 207 207 208 209 210 210 209 208 207 208 210 211 212 212
224 223 222 222 221 217 215 217 217 216 215 214 212 211 213 215 217 220 221 224 229 230 226 220 223 231 234 232 226 219 218 218 216 217 217 216 216 216 215 214 213 213 212 211 209 207 207 207 206 205 205 205 206 207 207 207 207 208 208 207 207 208 207 207 207 206 206 206 207 207 207 208 208 208 209 210 211 211 211 210 209 210 212 213 215 215
222 222 220 219 220 218 217 218 216 215 215 216 214 213 216 216 217 220 221 224 228 230 228 222 224 229 226 226 225 217 216 217 217 217 218 219 218 217 216 215 214 213 212 212 210 208 208 208 207 207 206 207 207 207 207 208 208 208 208 208 207 208 207 206 207 207 207 207 207 208 208 208 209 210 210 211 212 212 212 211 211 212 213 215 217 218
223 223 221 221 224 220 218 218 215 213 216 217 215 215 218 217 216 221 223 224 227 230 228 223 225 230 226 228 229 220 216 216 217 218 218 220 219 217 218 218 217 215 213 212 211 209 209 208 208 208 208 208 208 208 208 208 207 207 208 208 208 208 208 207 207 208 208 208 208 208 209 209 210 211 211 212 212 213 213 213 213 214 215 216 217 218
224 224 223 227 228 221 219 219 214 213 215 215 213 215 217 216 216 222 227 227 225 228 227 224 228 233 232 232 228 219 217 216 216 219 219 220 218 215 216 216 216 216 213 212 211 210 210 208 209 209 208 208 208 208 208 208 208 207 207 208 208 208 208 207 207 208 209 209 209 209 210 210 210 211 211 212 213 213 213 214 214 215 216 216 217 219
226 227 224 224 224 221 221 222 217 213 212 212 213 215 214 214 217 221 225 226 224 227 229 225 227 228 225 227 224 217 217 218 217 219 220 220 218 215 215 214 215 215 213 212 212 212 210 209 209 210 209 208 209 209 209 209 209 208 207 207 208 208 208 208 208 208 209 210 210 210 210 211 211 212 212 213 213 214 214 215 215 215 216 217 218 220
225 226 223 219 219 221 221 220 217 213 212 214 215 214 212 213 216 217 219 222 222 227 231 228 228 226 222 222 220 216 217 218 218 219 220 221 219 217 216 215 214 214 214 213 212 212 211 209 210 211 210 209 209 210 210 210 209 208 208 208 208 208 209 209 209 209 209 210 211 211 211 211 212 213 213 213 214 215 215 216 216 216 217 218 219 221
222 221 221 219 219 221 219 215 214 213 213 213 214 214 214 216 217 216 219 221 221 226 229 229 230 229 225 221 217 217 218 216 217 219 220 220 219 218 217 216 214 213 214 214 213 212 212 211 211 212 211 209 209 210 210 209 209 208 208 208 208 209 209 209 210 210 210 210 211 212 212 212 213 213 214 214 214 215 217 218 218 218 218 219 221 222
222 219 220 220 219 219 216 213 213 213 212 212 213 213 214 216 216 218 221 221 221 224 226 228 232 232 228 222 217 218 218 216 216 218 219 220 218 218 217 215 214 213 213 214 213 212 212 212 212 212 212 210 209 210 209 209 209 208 208 208 208 209 209 209 210 210 210 210 211 212 213 213 214 214 215 215 215 216 218 219 219 220 221 221 223 224
222 220 220 220 220 218 216 215 214 214 213 214 215 214 213 214 212 215 221 221 221 224 223 226 233 234 229 222 218 219 219 218 217 217 219 219 217 217 217 215 214 214 214 215 214 213 212 212 212 212 211 210 209 209 209 209 209 209 208 208 208 209 209 210 211 211 211 211 212 213 214 214 215 215 215 216 217 217 218 220 221 221 223 224 225 226
223 221 220 220 220 219 219 220 218 216 215 215 216 216 215 215 212 214 220 220 220 225 226 228 236 236 228 221 219 220 219 219 219 217 218 219 218 217 217 217 216 215 216 216 214 213 213 212 211 211 210 209 209 209 208 209 209 209 209 208 208 209 210 211 211 211 212 212 212 213 214 215 216 216 216 217 218 219 219 220 221 223 224 225 227 228
223 220 220 220 221 221 219 216 215 215 214 213 216 216 216 218 217 217 220 220 220 223 223 228 236 235 229 223 220 221 221 220 221 220 219 220 219 218 218 219 217 216 217 217 215 214 212 210 210 210 210 209 209 209 208 208 209 209 209 209 209 210 211 211 212 212 212 213 213 213 214 215 216 216 217 217 219 220 220 221 222 223 225 226 228 229
222 219 217 216 216 217 216 212 212 214 213 213 216 217 217 219 220 220 220 219 222 222 217 221 229 228 225 224 221 223 225 225 225 225 224 224 222 219 219 220 219 218 217 216 215 214 210 208 209 209 209 208 209 209 208 208 208 209 209 209 209 210 211 211 212 212 213 213 214 214 215 215 216 217 217 218 219 220 220 221 222 223 225 226 228 229
222 219 216 212 209 210 209 207 208 212 215 215 216 218 218 217 219 221 219 219 222 221 216 218 222 221 219 218 216 217 219 222 226 226 226 226 224 221 221 221 221 220 218 217 215 212 209 208 208 207 207 207 208 209 208 207 208 208 209 209 210 210 211 211 211 212 213 214 214 215 215 216 217 218 218 219 220 220 221 221 222 223 224 226 228 229
221 219 216 213 212 212 211 210 211 213 217 218 219 221 220 218 219 219 219 219 219 218 219 220 221 223 225 221 217 218 217 219 226 226 223 223 224 222 221 222 223 222 220 218 214 210 209 208 207 207 207 207 208 208 208 207 207 207 208 208 209 209 210 210 211 212 213 214 215 216 216 217 218 218 219 219 220 220 221 221 222 223 224 226 228 230
220 219 217 214 215 216 217 218 218 218 220 221 221 223 222 221 221 219 219 220 217 217 222 222 219 225 229 223 219 223 224 225 229 228 224 224 225 225 225 227 226 221 219 216 212 209 208 207 207 208 208 207 207 207 206 206 206 206 207 207 207 207 208 209 210 211 213 214 215 216 217 217 218 219 219 220 220 220 221 221 221 222 224 226 228 229
219 219 217 215 216 217 217 219 220 220 219 219 220 223 224 225 223 220 220 220 218 219 223 219 215 221 224 223 225 227 226 228 231 231 231 231 231 231 231 230 226 220 216 213 209 207 206 206 207 207 207 206 207 206 205 205 205 206 206 206 206 207 207 208 209 211 212 213 214 216 217 217 218 218 219 220 220 220 221 221 221 222 224 226 228 229
219 219 217 216 217 217 218 218 217 216 217 218 219 221 224 226 225 222 221 220 221 224 224 219 217 219 220 225 230 230 227 227 230 233 237 239 237 235 232 229 224 217 213 210 207 206 206 206 207 207 206 206 207 206 204 204 205 205 205 205 206 207 208 208 209 210 211 213 214 216 217 217 217 217 218 219 220 221 221 221 222 223 224 226 228 229
217 217 215 215 215 216 215 214 212 212 214 216 218 220 224 227 224 220 219 219 221 223 223 221 220 220 223 228 229 229 229 227 230 237 241 242 242 237 230 223 218 213 210 207 205 205 207 207 207 207 206 206 206 205 204 204 205 205 205 205 205 206 207 208 209 210 212 213 215 216 216 217 216 216 217 218 219 221 222 222 223 224 225 226 228 229
214 215 215 213 214 214 210 209 211 213 212 213 216 221 223 222 218 216 216 217 219 220 220 221 221 221 225 228 227 228 229 228 232 240 241 244 249 241 227 217 211 208 207 205 204 205 207 207 206 206 206 206 205 204 203 203 204 204 204 204 205 205 205 206 207 209 211 213 215 215 216 216 216 215 216 217 219 221 222 223 224 224 225 227 228 230
212 214 214 212 212 211 208 210 213 212 210 212 214 216 216 214 212 212 213 216 218 217 214 216 218 220 224 225 224 225 227 229 233 238 238 242 252 244 224 212 207 206 205 204 204 205 206 205 205 205 205 204 204 203 202 202 202 204 204 203 204 204 204 205 206 207 209 211 213 214 214 215 215 215 216 217 219 220 222 223 224 224 225 226 228 230
211 211 212 210 208 208 210 211 209 208 209 210 208 208 210 210 208 209 211 214 216 215 214 215 217 220 223 222 222 223 224 226 229 235 236 238 247 240 220 209 204 203 203 203 203 204 204 204 204 203 203 203 202 201 200 201 202 203 202 201 202 202 203 204 205 206 208 210 211 212 213 213 214 215 216 217 218 219 221 222 223 224 225 226 228 229
209 208 209 208 206 208 210 207 204 205 207 205 202 205 209 206 207 210 209 209 213 214 216 218 220 222 223 222 222 224 223 223 225 231 237 238 241 235 218 207 202 199 199 200 200 200 201 201 201 201 200 200 200 199 198 199 201 201 200 201 201 202 203 204 205 207 209 210 211 212 213 213 214 215 216 217 217 219 220 221 223 224 225 227 228 230
206 205 207 207 205 206 208 206 203 203 203 202 202 208 209 206 208 210 207 206 211 213 215 218 220 222 223 222 222 221 220 219 220 226 236 239 238 230 216 207 202 198 196 196 197 197 199 200 200 199 198 198 198 198 198 199 199 200 200 201 201 202 203 204 206 208 210 211 211 212 214 214 215 216 217 217 218 219 220 221 222 224 225 227 229 230
205 204 205 205 203 202 206 207 203 200 202 204 205 208 211 210 211 210 206 205 209 212 214 218 219 220 221 221 222 219 216 215 216 224 235 240 235 226 214 205 201 197 195 194 194 195 196 198 198 197 196 197 198 199 199 199 199 200 200 201 201 201 202 204 206 208 210 211 212 213 214 215 216 217 218 218 219 220 221 222 223 225 226 227 229 231
203 204 202 201 201 201 204 205 201 199 201 203 206 211 216 215 212 208 205 204 207 211 215 216 216 219 218 218 223 222 215 211 214 222 232 235 231 222 210 200 197 196 195 195 193 193 194 194 194 194 195 197 199 199 199 199 199 200 200 201 201 201 202 204 207 209 210 211 213 213 214 214 215 216 217 218 220 221 223 224 225 226 227 228 230 231
200 202 201 202 203 202 201 202 200 199 199 201 207 217 221 217 209 203 202 204 205 210 215 215 214 216 215 215 220 218 210 208 212 221 228 228 223 216 205 197 193 192 194 194 192 192 192 192 192 193 195 197 199 199 198 198 199 200 201 202 202 202 203 205 207 209 210 211 212 213 214 214 215 216 217 219 221 222 224 225 226 228 229 229 231 232
199 201 201 203 204 202 201 201 199 198 199 202 210 220 224 216 205 200 201 204 205 208 212 211 211 214 214 213 214 210 206 208 213 220 225 219 211 206 201 195 191 189 189 189 189 189 189 189 190 193 195 197 198 198 197 198 200 201 202 203 203 204 205 206 208 209 210 211 213 213 214 215 216 217 218 220 222 223 225 227 228 229 230 231 233 234
198 200 201 201 201 201 200 198 197 196 198 204 212 221 221 210 201 198 201 204 205 207 208 207 208 211 212 210 207 206 208 211 213 216 216 208 200 200 197 193 190 187 186 185 185 186 187 188 188 190 193 195 196 196 197 198 200 202 203 203 204 205 206 208 209 210 212 214 215 216 216 217 218 219 220 221 223 225 226 228 229 230 231 232 234 235
194 197 199 198 197 197 196 195 194 194 197 204 212 216 211 199 195 197 201 203 204 206 206 205 205 207 209 208 205 206 211 212 210 209 204 198 198 200 197 193 190 188 187 186 185 186 187 187 187 187 189 191 193 195 196 198 199 201 202 203 205 206 208 209 211 213 215 216 218 219 219 220 220 220 222 223 224 225 227 228 229 230 231 233 234 236
192 194 195 195 194 193 192 191 192 194 197 204 209 207 201 194 194 199 202 203 204 205 206 205 204 205 208 208 206 208 213 213 208 203 198 196 197 198 197 195 194 193 193 191 188 187 188 188 187 186 186 187 190 192 193 195 197 199 200 202 204 206 208 210 212 214 216 217 219 220 220 221 222 222 224 225 226 226 228 229 230 231 232 233 235 237
187 192 193 194 193 191 189 189 191 194 197 198 197 195 192 192 194 197 200 202 205 205 205 206 206 206 207 208 209 211 213 212 208 203 199 196 195 196 196 196 196 197 197 194 191 189 188 187 187 185 185 185 187 189 191 192 194 196 198 201 204 206 208 211 213 215 216 217 218 219 220 221 222 224 225 226 227 228 229 230 231 233 234 235 237 238
181 194 197 195 191 190 189 189 190 193 196 196 195 192 191 192 194 195 197 201 205 207 206 207 209 208 206 208 210 210 210 211 210 205 201 198 196 195 193 194 196 197 196 194 192 190 188 187 186 185 184 184 185 188 191 192 192 194 197 201 203 205 207 209 211 212 214 215 217 219 220 222 223 225 226 227 228 229 230 232 232 233 235 236 237 239
175 189 194 194 193 192 190 189 193 198 202 203 200 197 196 196 196 197 199 201 205 208 208 208 210 209 207 207 208 207 208 211 210 205 201 198 196 194 192 193 194 193 191 191 191 191 189 188 187 187 187 187 189 190 192 193 194 196 199 203 205 206 208 210 211 212 213 214 216 218 221 223 224 226 228 229 230 231 232 233 234 234 236 237 238 239
175 183 189 192 194 195 193 193 200 209 212 208 202 199 200 200 200 202 204 205 207 209 210 210 211 210 209 206 205 207 209 210 209 206 203 201 200 197 194 192 191 190 190 190 190 190 189 189 189 190 190 191 193 194 195 197 198 200 203 205 208 210 211 213 214 216 217 219 220 220 222 224 226 227 229 231 232 233 234 234 235 235 236 238 239 240
189 203 193 193 197 199 198 200 209 214 209 202 198 200 205 208 208 210 210 210 211 212 212 212 212 211 209 207 205 206 208 210 209 207 205 205 205 201 196 191 189 188 189 190 190 189 188 188 188 189 191 193 195 196 197 198 201 203 206 208 210 212 213 214 216 218 221 224 224 223 224 227 228 229 230 231 232 233 234 234 235 235 236 237 238 239
218 219 206 203 203 202 201 205 211 210 203 199 202 212 220 220 218 219 217 216 216 215 214 213 213 211 209 208 207 206 208 210 210 208 207 208 207 203 198 194 191 189 189 190 191 190 189 189 190 191 192 194 195 196 196 198 201 204 208 210 213 214 216 218 220 221 223 226 226 225 226 229 230 230 231 232 232 232 233 234 235 235 236 238 239 240
224 217 217 208 203 203 207 212 215 211 208 210 215 221 226 226 224 223 222 220 219 217 215 214 213 211 208 207 207 207 208 209 209 209 208 207 204 203 200 197 194 192 190 191 192 192 192 193 193 194 195 197 197 196 197 199 202 204 207 210 214 217 219 222 225 226 228 230 230 228 228 230 231 231 232 232 232 232 233 235 237 238 238 239 241 242
354 262 247 217 208 213 220 223 221 218 217 218 220 223 227 228 227 225 224 222 221 220 217 214 214 212 209 208 208 207 207 207 208 208 207 204 201 200 199 198 196 195 194 193 194 195 196 197 197 197 198 200 200 200 201 202 204 206 209 213 216 220 223 226 228 229 231 232 232 231 230 231 232 231 231 231 231 232 233 236 238 240 241 241 241 242